This is the latest recevied weather packets stored in our database for station/object KC1BRV. If no packets are shown the sender has not sent any weather packets the latest 10 day(s).
| Time | Temp. | Humidity | Pressure | Rain* | Wind** | Luminosity | Snow |
|---|---|---|---|---|---|---|---|
| 1777925931 | 20° C | 39% | 1010.1 hPa | 0 mm | - | 405 W/m² | - |
| 1777925628 | 20° C | 39% | 1010 hPa | 0 mm | - | 414 W/m² | - |
| 1777925326 | 20° C | 38% | 1010 hPa | 0 mm | - | 435 W/m² | - |
| 1777925022 | 19.44° C | 38% | 1010.2 hPa | 0 mm | - | 452 W/m² | - |
| 1777924719 | 19.44° C | 38% | 1010.1 hPa | 0 mm | - | 468 W/m² | - |
| 1777924415 | 19.44° C | 37% | 1009.9 hPa | 0 mm | - | 482 W/m² | - |
| 1777924112 | 19.44° C | 38% | 1010.1 hPa | 0 mm | - | 490 W/m² | - |
| 1777923807 | 20° C | 37% | 1010.1 hPa | 0 mm | - | 498 W/m² | - |
| 1777923503 | 20° C | 39% | 1010 hPa | 0 mm | - | 512 W/m² | - |
| 1777923201 | 20° C | 36% | 1010.1 hPa | 0 mm | - | 530 W/m² | - |
| 1777922900 | 20° C | 37% | 1010.2 hPa | 0 mm | - | 536 W/m² | - |
| 1777922597 | 20° C | 35% | 1010.1 hPa | 0 mm | - | 546 W/m² | - |
| 1777922295 | 20° C | 36% | 1010.3 hPa | 0 mm | - | 556 W/m² | - |
| 1777921993 | 20° C | 36% | 1010.2 hPa | 0 mm | - | 575 W/m² | - |
| 1777921689 | 19.44° C | 36% | 1010.2 hPa | 0 mm | - | 586 W/m² | - |
| 1777921384 | 19.44° C | 34% | 1010.2 hPa | 0 mm | - | 596 W/m² | - |
| 1777921081 | 20° C | 34% | 1010.2 hPa | 0 mm | - | 608 W/m² | - |
| 1777920778 | 20° C | 34% | 1010.3 hPa | 0 mm | - | 614 W/m² | - |
| 1777920474 | 20° C | 33% | 1010.4 hPa | 0 mm | - | 624 W/m² | - |
| 1777920170 | 20° C | 33% | 1010.6 hPa | 0 mm | - | 630 W/m² | - |
| 1777919866 | 20.56° C | 32% | 1010.3 hPa | 0 mm | - | 643 W/m² | - |
| 1777919563 | 20° C | 31% | 1010.4 hPa | 0 mm | - | 645 W/m² | - |
| 1777919261 | 20° C | 32% | 1010.6 hPa | 0 mm | - | 657 W/m² | - |
| 1777918958 | 20° C | 33% | 1010.6 hPa | 0 mm | - | 673 W/m² | - |
| 1777918656 | 20° C | 32% | 1010.7 hPa | 0 mm | - | 679 W/m² | - |
* Rain latest hour (hover to see other rain measurements)
** Current wind speed in m/s (hover to see current wind gust speed)